UNQ745 LGTS-LIBR

Flight info

Callsign UNQ745
Flight time 0h 48m
Altitude 32000
Route EDASI UM603 PINDO DCT PAPIZ/N0341F180 P92 ABADI
Aircraft A320/M-SDE3FGHIRWY/LB1

Departure

Time 2026-04-18 08:45
Airport Thessaloniki Macedonia International Airport (LGTS)

Arrival

Time 2026-04-18 09:33
Airport Brindisi Airport (LIBR)
Time Latitude Longitude Altitude Speed Heading
2026-04-18 08:21 40.52460 22.97393 28 ft 0 kts 45°
2026-04-18 08:29 40.52444 22.97372 28 ft 4 kts 45°
2026-04-18 08:29 40.52425 22.97347 28 ft 4 kts 45°
2026-04-18 08:29 40.52406 22.97321 28 ft 4 kts 45°
2026-04-18 08:29 40.52398 22.97311 28 ft 0 kts 45°
2026-04-18 08:32 40.52399 22.97313 28 ft 3 kts 46°
2026-04-18 08:32 40.52397 22.97334 28 ft 2 kts 98°
2026-04-18 08:33 40.52394 22.97349 28 ft 1 kts 107°
2026-04-18 08:33 40.52391 22.97359 28 ft 3 kts 110°
2026-04-18 08:33 40.52363 22.97403 28 ft 7 kts 134°
2026-04-18 08:33 40.52334 22.97443 28 ft 6 kts 134°
2026-04-18 08:34 40.52308 22.97477 28 ft 5 kts 136°
2026-04-18 08:34 40.52286 22.97504 28 ft 4 kts 136°
2026-04-18 08:34 40.52269 22.97526 28 ft 3 kts 136°
2026-04-18 08:34 40.52254 22.97544 28 ft 2 kts 136°
2026-04-18 08:35 40.52244 22.97557 28 ft 2 kts 136°
2026-04-18 08:35 40.52231 22.97573 28 ft 3 kts 136°
2026-04-18 08:35 40.52216 22.97591 28 ft 3 kts 136°
2026-04-18 08:35 40.52205 22.97605 28 ft 2 kts 136°
2026-04-18 08:36 40.52198 22.97614 28 ft 1 kts 136°
2026-04-18 08:36 40.52194 22.97620 28 ft 0 kts 136°
2026-04-18 08:36 40.52193 22.97621 28 ft 0 kts 136°
2026-04-18 08:37 40.52185 22.97630 28 ft 2 kts 138°
2026-04-18 08:37 40.52148 22.97663 28 ft 9 kts 146°
2026-04-18 08:37 40.52105 22.97713 29 ft 8 kts 135°
2026-04-18 08:38 40.52066 22.97749 29 ft 6 kts 165°
2026-04-18 08:38 40.52031 22.97733 29 ft 6 kts 220°
2026-04-18 08:38 40.51989 22.97672 29 ft 12 kts 231°
2026-04-18 08:38 40.51942 22.97592 29 ft 10 kts 236°
2026-04-18 08:39 40.51915 22.97490 28 ft 15 kts 262°
2026-04-18 08:39 40.51924 22.97355 26 ft 14 kts 259°
2026-04-18 08:39 40.51851 22.97317 28 ft 11 kts 170°
2026-04-18 08:39 40.51784 22.97338 29 ft 9 kts 166°
2026-04-18 08:40 40.51730 22.97356 29 ft 7 kts 166°
2026-04-18 08:40 40.51684 22.97371 29 ft 6 kts 166°
2026-04-18 08:40 40.51644 22.97383 29 ft 6 kts 166°
2026-04-18 08:40 40.51609 22.97395 29 ft 5 kts 166°
2026-04-18 08:41 40.51580 22.97404 29 ft 4 kts 166°
2026-04-18 08:41 40.51555 22.97412 29 ft 3 kts 166°
2026-04-18 08:41 40.51536 22.97419 29 ft 2 kts 166°
2026-04-18 08:41 40.51502 22.97429 29 ft 9 kts 167°
2026-04-18 08:42 40.51442 22.97447 29 ft 8 kts 167°
2026-04-18 08:42 40.51389 22.97462 29 ft 7 kts 167°
2026-04-18 08:42 40.51342 22.97476 29 ft 7 kts 167°
2026-04-18 08:42 40.51300 22.97489 29 ft 6 kts 166°
2026-04-18 08:43 40.51264 22.97501 29 ft 5 kts 165°
2026-04-18 08:43 40.51190 22.97528 29 ft 18 kts 165°
2026-04-18 08:43 40.51075 22.97564 29 ft 12 kts 166°
2026-04-18 08:43 40.50999 22.97575 28 ft 11 kts 194°
2026-04-18 08:44 40.50961 22.97503 28 ft 10 kts 258°
2026-04-18 08:44 40.50974 22.97422 28 ft 8 kts 307°
2026-04-18 08:44 40.51018 22.97400 28 ft 6 kts 348°
2026-04-18 08:44 40.51136 22.97366 29 ft 46 kts 347°
2026-04-18 08:45 40.51685 22.97194 30 ft 113 kts 346°
2026-04-18 08:45 40.52602 22.96900 214 ft 144 kts 347°
2026-04-18 08:45 40.53535 22.96589 937 ft 136 kts 335°
2026-04-18 08:45 40.54261 22.95788 1565 ft 139 kts 318°
2026-04-18 08:46 40.55011 22.94841 1901 ft 159 kts 322°
2026-04-18 08:46 40.55954 22.93931 2258 ft 177 kts 328°
2026-04-18 08:46 40.57027 22.93045 2640 ft 194 kts 330°
2026-04-18 08:46 40.58241 22.92034 2976 ft 220 kts 329°
2026-04-18 08:47 40.59582 22.90852 3446 ft 244 kts 327°
2026-04-18 08:47 40.61015 22.89545 4197 ft 255 kts 326°
2026-04-18 08:47 40.62460 22.88133 5091 ft 262 kts 317°
2026-04-18 08:47 40.63493 22.86141 5989 ft 269 kts 292°
2026-04-18 08:48 40.63750 22.83690 6902 ft 276 kts 265°
2026-04-18 08:48 40.63112 22.81288 7775 ft 284 kts 242°
2026-04-18 08:48 40.62105 22.79038 8689 ft 287 kts 241°
2026-04-18 08:48 40.61074 22.76766 9572 ft 291 kts 241°
2026-04-18 08:49 40.60023 22.74455 10289 ft 301 kts 241°
2026-04-18 08:49 40.58911 22.71990 10586 ft 325 kts 241°
2026-04-18 08:49 40.57738 22.69383 11199 ft 335 kts 241°
2026-04-18 08:49 40.56547 22.66732 11986 ft 339 kts 241°
2026-04-18 08:50 40.55343 22.64051 12794 ft 342 kts 242°
2026-04-18 08:50 40.54126 22.61339 13594 ft 346 kts 242°
2026-04-18 08:50 40.52896 22.58602 14310 ft 349 kts 242°
2026-04-18 08:50 40.51655 22.55847 14990 ft 352 kts 242°
2026-04-18 08:51 40.50404 22.53072 15699 ft 355 kts 242°
2026-04-18 08:51 40.49136 22.50262 16400 ft 358 kts 242°
2026-04-18 08:51 40.47860 22.47436 17096 ft 361 kts 243°
2026-04-18 08:51 40.46703 22.44517 17748 ft 361 kts 252°
2026-04-18 08:52 40.45985 22.41365 18385 ft 361 kts 263°
2026-04-18 08:52 40.45739 22.38100 18970 ft 359 kts 273°
2026-04-18 08:52 40.45738 22.34816 19583 ft 361 kts 273°
2026-04-18 08:52 40.45736 22.31555 20195 ft 362 kts 273°
2026-04-18 08:53 40.45733 22.28239 20803 ft 364 kts 273°
2026-04-18 08:53 40.45729 22.24906 21392 ft 366 kts 273°
2026-04-18 08:53 40.45724 22.21552 21981 ft 368 kts 273°
2026-04-18 08:53 40.45716 22.18179 22567 ft 370 kts 273°
2026-04-18 08:54 40.45706 22.14737 23142 ft 373 kts 273°
2026-04-18 08:54 40.45695 22.11372 23644 ft 375 kts 273°
2026-04-18 08:54 40.45683 22.07936 24079 ft 378 kts 273°
2026-04-18 08:54 40.45669 22.04477 24522 ft 380 kts 273°
2026-04-18 08:55 40.45653 22.00998 24980 ft 381 kts 273°
2026-04-18 08:55 40.45638 21.97517 25424 ft 382 kts 274°
2026-04-18 08:55 40.45625 21.94020 25859 ft 384 kts 273°
2026-04-18 08:55 40.45612 21.90501 26305 ft 387 kts 274°
2026-04-18 08:56 40.45595 21.86955 26706 ft 389 kts 274°
2026-04-18 08:56 40.45575 21.83398 27102 ft 392 kts 274°
2026-04-18 08:56 40.45553 21.79805 27496 ft 394 kts 274°
2026-04-18 08:56 40.45528 21.76199 27892 ft 396 kts 274°
2026-04-18 08:57 40.45474 21.68936 28688 ft 400 kts 274°
2026-04-18 08:57 40.45446 21.65267 29074 ft 403 kts 274°
2026-04-18 08:57 40.45416 21.61576 29452 ft 405 kts 274°
2026-04-18 08:58 40.45384 21.57870 29815 ft 407 kts 274°
2026-04-18 08:58 40.45352 21.54142 30152 ft 410 kts 274°
2026-04-18 08:58 40.45321 21.50389 30443 ft 412 kts 274°
2026-04-18 08:58 40.45290 21.46627 30733 ft 413 kts 274°
2026-04-18 08:59 40.45258 21.42844 31012 ft 415 kts 274°
2026-04-18 08:59 40.45223 21.39101 31279 ft 417 kts 274°
2026-04-18 08:59 40.45183 21.35240 31562 ft 418 kts 274°
2026-04-18 08:59 40.45140 21.31462 31898 ft 418 kts 274°
2026-04-18 09:00 40.45436 21.24033 31994 ft 393 kts 281°
2026-04-18 09:00 40.46097 21.17009 31991 ft 385 kts 281°
2026-04-18 09:01 40.46747 21.10032 31985 ft 384 kts 282°
2026-04-18 09:01 40.47392 21.03083 31984 ft 383 kts 281°
2026-04-18 09:02 40.48048 20.96137 31980 ft 382 kts 284°
2026-04-18 09:02 40.49403 20.89449 31982 ft 379 kts 290°
2026-04-18 09:03 40.50834 20.82795 31974 ft 378 kts 289°
2026-04-18 09:03 40.52245 20.76147 31948 ft 378 kts 289°
2026-04-18 09:04 40.53656 20.69479 31946 ft 378 kts 289°
2026-04-18 09:04 40.55068 20.62821 31950 ft 378 kts 289°
2026-04-18 09:05 40.56474 20.56203 31945 ft 378 kts 289°
2026-04-18 09:05 40.57880 20.49539 31942 ft 378 kts 289°
2026-04-18 09:06 40.59281 20.42885 31923 ft 378 kts 290°
2026-04-18 09:06 40.60678 20.36214 31930 ft 378 kts 289°
2026-04-18 09:07 40.62066 20.29535 31919 ft 378 kts 289°
2026-04-18 09:07 40.63458 20.22846 31923 ft 379 kts 289°
2026-04-18 09:08 40.64842 20.16171 31910 ft 378 kts 289°
2026-04-18 09:08 40.66224 20.09474 31898 ft 379 kts 290°
2026-04-18 09:09 40.67605 20.02777 31892 ft 379 kts 289°
2026-04-18 09:09 40.68989 19.96072 31895 ft 379 kts 289°
2026-04-18 09:10 40.70359 19.89354 31893 ft 381 kts 289°
2026-04-18 09:10 40.71058 19.85934 31915 ft 392 kts 289°
2026-04-18 09:10 40.71773 19.82444 31433 ft 396 kts 289°
2026-04-18 09:11 40.72489 19.78938 30727 ft 395 kts 289°
2026-04-18 09:11 40.73198 19.75452 30103 ft 393 kts 289°
2026-04-18 09:11 40.73900 19.71975 29446 ft 391 kts 289°
2026-04-18 09:11 40.74594 19.68524 28863 ft 387 kts 289°
2026-04-18 09:12 40.75277 19.65130 28435 ft 379 kts 289°
2026-04-18 09:12 40.75946 19.61797 28001 ft 372 kts 289°
2026-04-18 09:12 40.76602 19.58517 27574 ft 366 kts 289°
2026-04-18 09:12 40.77244 19.55308 27171 ft 359 kts 290°
2026-04-18 09:13 40.77879 19.52145 26764 ft 353 kts 290°
2026-04-18 09:13 40.78494 19.49079 26385 ft 348 kts 290°
2026-04-18 09:13 40.79107 19.46019 25992 ft 343 kts 290°
2026-04-18 09:13 40.79712 19.43001 25587 ft 338 kts 290°
2026-04-18 09:14 40.80313 19.40023 25204 ft 334 kts 290°
2026-04-18 09:14 40.80905 19.37075 24808 ft 331 kts 290°
2026-04-18 09:14 40.81486 19.34149 24392 ft 328 kts 290°
2026-04-18 09:14 40.82061 19.31239 23985 ft 326 kts 290°
2026-04-18 09:15 40.82634 19.28356 23569 ft 324 kts 290°
2026-04-18 09:15 40.83208 19.25489 23117 ft 322 kts 290°
2026-04-18 09:15 40.83774 19.22642 22697 ft 318 kts 290°
2026-04-18 09:15 40.84330 19.19828 22280 ft 315 kts 290°
2026-04-18 09:16 40.84876 19.17038 21887 ft 312 kts 289°
2026-04-18 09:16 40.85419 19.14274 21494 ft 310 kts 289°
2026-04-18 09:16 40.85958 19.11531 21095 ft 307 kts 289°
2026-04-18 09:16 40.86494 19.08810 20731 ft 305 kts 289°
2026-04-18 09:17 40.87026 19.06100 20350 ft 304 kts 289°
2026-04-18 09:17 40.87556 19.03403 19968 ft 302 kts 289°
2026-04-18 09:17 40.88082 19.00719 19595 ft 301 kts 289°
2026-04-18 09:17 40.88493 18.97999 19218 ft 305 kts 279°
2026-04-18 09:18 40.88510 18.96132 18959 ft 309 kts 271°
2026-04-18 09:18 40.88104 18.93312 18544 ft 317 kts 257°
2026-04-18 09:18 40.87181 18.90636 18092 ft 325 kts 245°
2026-04-18 09:18 40.86041 18.88059 17641 ft 325 kts 245°
2026-04-18 09:19 40.84906 18.85481 17212 ft 325 kts 245°
2026-04-18 09:19 40.83776 18.82901 16798 ft 324 kts 245°
2026-04-18 09:19 40.82646 18.80316 16396 ft 324 kts 245°
2026-04-18 09:19 40.81517 18.77740 15963 ft 324 kts 244°
2026-04-18 09:20 40.80382 18.75166 15550 ft 325 kts 244°
2026-04-18 09:20 40.79245 18.72591 15143 ft 325 kts 244°
2026-04-18 09:20 40.78107 18.70013 14757 ft 325 kts 244°
2026-04-18 09:20 40.76965 18.67429 14338 ft 326 kts 244°
2026-04-18 09:21 40.75886 18.64810 13921 ft 323 kts 251°
2026-04-18 09:21 40.75224 18.62012 13510 ft 317 kts 263°
2026-04-18 09:21 40.74841 18.59163 13131 ft 315 kts 264°
2026-04-18 09:21 40.74454 18.56330 12757 ft 313 kts 263°
2026-04-18 09:22 40.74064 18.53518 12382 ft 311 kts 263°
2026-04-18 09:22 40.73676 18.50721 12000 ft 310 kts 263°
2026-04-18 09:22 40.73288 18.47934 11613 ft 308 kts 263°
2026-04-18 09:22 40.72904 18.45183 11397 ft 301 kts 263°
2026-04-18 09:23 40.72528 18.42478 11063 ft 299 kts 263°
2026-04-18 09:23 40.72152 18.39780 10653 ft 299 kts 263°
2026-04-18 09:23 40.71776 18.37091 10137 ft 298 kts 263°
2026-04-18 09:23 40.71401 18.34402 9662 ft 299 kts 263°
2026-04-18 09:24 40.70886 18.31762 9275 ft 298 kts 248°
2026-04-18 09:24 40.69648 18.29530 8717 ft 309 kts 220°
2026-04-18 09:24 40.67762 18.28249 8385 ft 307 kts 194°
2026-04-18 09:24 40.65638 18.27998 7931 ft 308 kts 181°
2026-04-18 09:25 40.63508 18.27851 7551 ft 305 kts 185°
2026-04-18 09:25 40.61415 18.27495 7135 ft 299 kts 190°
2026-04-18 09:25 40.59403 18.26946 6446 ft 299 kts 195°
2026-04-18 09:25 40.57430 18.26161 5830 ft 296 kts 201°
2026-04-18 09:26 40.55525 18.25148 5461 ft 292 kts 206°
2026-04-18 09:26 40.53713 18.23941 4931 ft 291 kts 211°
2026-04-18 09:26 40.51992 18.22541 4439 ft 291 kts 217°
2026-04-18 09:26 40.50381 18.20978 3970 ft 285 kts 220°
2026-04-18 09:27 40.48915 18.19319 3825 ft 270 kts 226°
2026-04-18 09:27 40.47792 18.17481 3766 ft 248 kts 251°
2026-04-18 09:27 40.47612 18.15381 3683 ft 223 kts 291°
2026-04-18 09:27 40.48444 18.13836 3577 ft 204 kts 335°
2026-04-18 09:28 40.49776 18.13343 3513 ft 196 kts 353°
2026-04-18 09:28 40.50980 18.12630 3503 ft 189 kts 326°
2026-04-18 09:28 40.51974 18.11526 3499 ft 187 kts 325°
2026-04-18 09:28 40.52941 18.10383 3367 ft 186 kts 324°
2026-04-18 09:29 40.53896 18.09231 3143 ft 186 kts 324°
2026-04-18 09:29 40.54852 18.08072 2902 ft 187 kts 324°
2026-04-18 09:29 40.55817 18.06901 2657 ft 191 kts 324°
2026-04-18 09:29 40.56780 18.05727 2418 ft 186 kts 324°
2026-04-18 09:30 40.57715 18.04589 2151 ft 181 kts 324°
2026-04-18 09:30 40.58629 18.03477 1914 ft 178 kts 324°
2026-04-18 09:30 40.59502 18.02412 1693 ft 167 kts 323°
2026-04-18 09:30 40.60340 18.01390 1450 ft 157 kts 323°
2026-04-18 09:31 40.61108 18.00453 1273 ft 142 kts 323°
2026-04-18 09:31 40.61801 17.99608 1074 ft 131 kts 323°
2026-04-18 09:31 40.62453 17.98812 919 ft 125 kts 322°
2026-04-18 09:31 40.63094 17.98046 770 ft 126 kts 320°
2026-04-18 09:32 40.63751 17.97288 588 ft 124 kts 319°
2026-04-18 09:32 40.64355 17.96496 445 ft 125 kts 315°
2026-04-18 09:32 40.64985 17.95716 254 ft 123 kts 319°
2026-04-18 09:32 40.65611 17.94962 109 ft 121 kts 317°
2026-04-18 09:33 40.66211 17.94248 60 ft 105 kts 315°
2026-04-18 09:33 40.66630 17.93716 54 ft 60 kts 317°
2026-04-18 09:33 40.66747 17.93615 55 ft 6 kts 54°
2026-04-18 09:33 40.66757 17.93648 54 ft 5 kts 56°
2026-04-18 09:34 40.66798 17.93711 52 ft 4 kts 48°
2026-04-18 09:34 40.66813 17.93732 56 ft 3 kts 48°
2026-04-18 09:34 40.66822 17.93747 51 ft 2 kts 49°
2026-04-18 09:34 40.66824 17.93753 56 ft 0 kts 74°
2026-04-18 09:35 40.66825 17.93767 50 ft 2 kts 84°
2026-04-18 09:35 40.66823 17.93777 57 ft 1 kts 117°
2026-04-18 09:35 40.66792 17.93820 53 ft 11 kts 137°
2026-04-18 09:35 40.66739 17.93884 57 ft 10 kts 137°
2026-04-18 09:36 40.66690 17.93943 54 ft 10 kts 137°
2026-04-18 09:36 40.66631 17.94014 55 ft 13 kts 137°
2026-04-18 09:36 40.66570 17.94088 52 ft 11 kts 135°
2026-04-18 09:36 40.66517 17.94156 55 ft 10 kts 136°
2026-04-18 09:37 40.66468 17.94216 54 ft 9 kts 137°
2026-04-18 09:37 40.66424 17.94270 55 ft 8 kts 137°
2026-04-18 09:37 40.66384 17.94318 51 ft 8 kts 137°
2026-04-18 09:37 40.66325 17.94390 54 ft 14 kts 137°
2026-04-18 09:38 40.66255 17.94476 53 ft 13 kts 137°
2026-04-18 09:38 40.66190 17.94555 55 ft 12 kts 137°
2026-04-18 09:38 40.66131 17.94628 53 ft 11 kts 137°
2026-04-18 09:38 40.66077 17.94693 53 ft 10 kts 137°
2026-04-18 09:39 40.66022 17.94690 55 ft 8 kts 223°
2026-04-18 09:39 40.65978 17.94617 53 ft 15 kts 232°
2026-04-18 09:39 40.65899 17.94483 52 ft 20 kts 232°
2026-04-18 09:39 40.65811 17.94331 51 ft 22 kts 233°
2026-04-18 09:40 40.65725 17.94184 55 ft 19 kts 230°
2026-04-18 09:40 40.65659 17.94067 52 ft 11 kts 245°
2026-04-18 09:40 40.65691 17.94018 56 ft 8 kts 322°
2026-04-18 09:40 40.65727 17.93988 54 ft 5 kts 348°
2026-04-18 09:41 40.65733 17.93988 54 ft 2 kts
2026-04-18 09:41 40.65734 17.93988 56 ft 0 kts
2026-04-18 09:41 40.65735 17.93988 56 ft 0 kts 357°
2026-04-18 09:41 40.65737 17.93988 56 ft 0 kts 358°